This is the latest recevied weather packets stored in our database for station/object N2WH. If no packets are shown the sender has not sent any weather packets the latest 10 day(s).
| Time | Temp. | Humidity | Pressure | Rain* | Wind** | Luminosity | Snow |
|---|---|---|---|---|---|---|---|
| 1777490128 | 16.67° C | 61% | 1013.2 hPa | 0 mm | - | 218 W/m² | - |
| 1777489826 | 16.67° C | 59% | 1013.7 hPa | 0 mm | - | 205 W/m² | - |
| 1777489523 | 17.22° C | 58% | 1013.5 hPa | 0 mm | - | 262 W/m² | - |
| 1777489220 | 17.22° C | 58% | 1013.5 hPa | 0 mm | - | 276 W/m² | - |
| 1777488916 | 17.22° C | 58% | 1013.5 hPa | 0 mm | - | 251 W/m² | - |
| 1777488613 | 16.67° C | 58% | 1013.7 hPa | 0 mm | - | 172 W/m² | - |
| 1777488311 | 17.22° C | 57% | 1013.7 hPa | 0 mm | - | 179 W/m² | - |
| 1777488009 | 17.22° C | 56% | 1013.9 hPa | 0 mm | - | 210 W/m² | - |
| 1777487707 | 17.78° C | 55% | 1013.7 hPa | 0 mm | - | 228 W/m² | - |
| 1777487404 | 17.78° C | 54% | 1013.9 hPa | 0 mm | - | 262 W/m² | - |
| 1777487101 | 17.78° C | 54% | 1013.7 hPa | 0 mm | - | 319 W/m² | - |
| 1777486796 | 17.78° C | 55% | 1014.1 hPa | 0 mm | - | 272 W/m² | - |
| 1777486495 | 18.89° C | 53% | 1014 hPa | 0 mm | - | 294 W/m² | - |
| 1777486192 | 18.89° C | 52% | 1013.9 hPa | 0 mm | - | 382 W/m² | - |
| 1777485890 | 18.33° C | 53% | 1013.7 hPa | 0 mm | - | 410 W/m² | - |
| 1777485585 | 18.89° C | 52% | 1014.1 hPa | 0 mm | - | 432 W/m² | - |
| 1777485281 | 18.89° C | 50% | 1013.9 hPa | 0 mm | - | 367 W/m² | - |
| 1777484978 | 19.44° C | 50% | 1013.8 hPa | 0 mm | - | 440 W/m² | - |
| 1777484675 | 19.44° C | 50% | 1013.9 hPa | 0 mm | - | 696 W/m² | - |
| 1777484371 | 20° C | 50% | 1013.8 hPa | 0 mm | - | 728 W/m² | - |
| 1777484067 | 20° C | 50% | 1014 hPa | 0 mm | - | 421 W/m² | - |
| 1777483763 | 20° C | 49% | 1014.3 hPa | 0 mm | - | 608 W/m² | - |
| 1777483460 | 18.89° C | 51% | 1014.1 hPa | 0 mm | - | 673 W/m² | - |
| 1777483155 | 18.33° C | 50% | 1014.3 hPa | 0 mm | - | 622 W/m² | - |
| 1777482852 | 18.89° C | 50% | 1014.5 hPa | 0 mm | - | 438 W/m² | - |
* Rain latest hour (hover to see other rain measurements)
** Current wind speed in m/s (hover to see current wind gust speed)